Regional Weather Roundup
Issued by NWS Northern Indiana

Home | Current Version | Previous Version | Text Only | Print | Product List | Glossary On
Versions: 1 2 3 4 5 6 7 8 9 10 11 12 13 14 15 16 17 18 19 20 21 22 23 24 25 26 27 28 29 30 31 32 33 34 35 36 37 38 39 40 41 42 43 44 45 46 47 48 49 50
000
ASUS43 KIWX 270510
RWRIWX

KIWX WEATHER ROUNDUP
NATIONAL WEATHER SERVICE NORTHERN INDIANA
100 AM EDT MON MAR 27 2017

NOTE: "FAIR" INDICATES FEW OR NO CLOUDS BELOW 12,000 FEET WITH NO
SIGNIFICANT WEATHER AND/OR OBSTRUCTIONS TO VISIBILITY.

* THESE STATIONS ARE NOT UNDER NWS QUALITY CONTROL. THEY ALSO MAY NOT
  REPORT WEATHER SUCH AS PRECIPITATION OR FOG.

INZ001>027-270600-
NORTHERN INDIANA

CITY           SKY/WX    TMP DP  RH WIND       PRES   REMARKS
GARY*          CLOUDY    54  48  82 SW5       29.90S
VALPARAISO     CLOUDY    52  49  89 SW9       29.90S
MICHIGAN CITY* CLOUDY    52  52 100 SW7       29.89F
LAPORTE*       CLOUDY    51  50  94 W8        29.90F
KNOX*          CLOUDY    50  37  62 SW9       29.90S
SOUTH BEND     CLOUDY    52  51  97 SW9       29.89F
GOSHEN         CLOUDY    53  49  86 SW7       29.89F
MONTICELLO*    CLOUDY    52  49  91 W8        29.92S
LOGANSPORT*    RAIN      52  50  93 SW9       29.93S
ROCHESTER*     CLOUDY    55  52  88 W9        29.91F
WARSAW*        CLOUDY    52  50  93 W12       29.90F
ANGOLA*        CLOUDY    52  45  76 SW5       29.89S
FORT WAYNE     DRIZZLE   54  50  86 W10       29.91S
HUNTINGTON*    CLOUDY    52  51  95 SW6       29.92S
PERU/GRISSOM   CLOUDY    52  52 100 W7        29.91S FOG
MARION*        CLOUDY    53  50  91 W10       29.94S

$$
INZ028>050-270600-
CENTRAL INDIANA

CITY           SKY/WX    TMP DP  RH WIND       PRES   REMARKS
LAFAYETTE      CLOUDY    52  51  97 W7        29.93S FOG
KOKOMO*        CLOUDY    53  51  93 SW9       29.93F
MUNCIE*        CLOUDY    56  49  77 SW8       29.94S
INDIANAPOLIS   PTCLDY    49  46  90 SW7       29.94F

$$
MIZ043>046-050>051-056>058-064>065-071>073-077>080-270600-
SOUTHWEST LOWER MICHIGAN

CITY           SKY/WX    TMP DP  RH WIND       PRES   REMARKS
BATTLE CREEK   CLOUDY    53  53 100 W8        29.88S FOG
BENTON HARBOR  CLOUDY    52  50  93 SW10      29.88S FOG
COLDWATER*     CLOUDY    53  53 100 SW7       29.88S
HILLSDALE*     CLOUDY    50  50 100 SW6       29.87F
HOLLAND        CLOUDY    46  44  93 SW7       29.87S
GRAND RAPIDS   CLOUDY    53  53 100 SW12      29.85S
KALAMAZOO      CLOUDY    54  50  86 SW9       29.88S
STURGIS*       CLOUDY    51  51  98 SW7       29.88S
THREE RIVERS*  CLOUDY    51  51 100 SW5       29.88F FOG

$$
OHZ001>008-015>018-024>025-270600-
NORTHWEST OHIO

CITY           SKY/WX    TMP DP  RH WIND       PRES   REMARKS
WAUSEON*       CLOUDY    54  54 100 SW8       29.89S
DEFIANCE       CLOUDY    53  51  93 SW8       29.90S
FINDLAY        LGT RAIN  55  51  86 SW12      29.90S
TOLEDO EXPRESS CLOUDY    53  52  96 SW8       29.89S
TOLEDO METCALF CLOUDY    53  52  96 S7        29.90S
LIMA           CLOUDY    54  53  97 SW9       29.92F

$$
AND FOR LAKE MICHIGAN COASTAL AND OPEN LAKE BUOY OBSERVATIONS

STATION/POSITION TEMP    WIND        PRES    VSBY  WAVE
                 AIR SEA DIR/SP/G                  HT/PER
                 (F)     (DEG/KT/KT) (MB)    (MI)  (FT/S)
CALUMET HARBOR    51     210/  6/  9 1011.6F
MICHIGAN CITY     49     240/ 15/ 16   N/A
BURNS HARBOR      52     220/  8/ 10 1012.5F

$$
&&



USA.gov is the U.S. government's official web portal to all federal, state and local government web resources and services.